This is the latest recevied weather packets stored in our database for station/object BV1EV-2. If no packets are shown the sender has not sent any weather packets the latest 10 day(s).
| Time | Temp. | Humidity | Pressure | Rain* | Wind** | Luminosity | Snow |
|---|---|---|---|---|---|---|---|
| 1777451867 | 28.89° C | 49% | 1007.8 hPa | - | - | - | - |
| 1777450667 | 28.89° C | 49% | 1007.8 hPa | - | - | - | - |
| 1777449467 | 28.89° C | 49% | 1007.4 hPa | - | - | - | - |
| 1777448267 | 28.89° C | 49% | 1007.2 hPa | - | - | - | - |
| 1777447067 | 29.44° C | 51% | 1007.3 hPa | - | - | - | - |
| 1777445867 | 29.44° C | 50% | 1007.9 hPa | - | - | - | - |
| 1777444668 | 29.44° C | 49% | 1007.6 hPa | - | - | - | - |
| 1777443467 | 29.44° C | 49% | 1007.4 hPa | - | - | - | - |
| 1777442267 | 29.44° C | 48% | 1007.4 hPa | - | - | - | - |
| 1777441066 | 29.44° C | 48% | 1007.5 hPa | - | - | - | - |
| 1777439867 | 29.44° C | 46% | 1007.3 hPa | - | - | - | - |
| 1777438667 | 29.44° C | 47% | 1007.4 hPa | - | - | - | - |
| 1777437467 | 29.44° C | 47% | 1007.7 hPa | - | - | - | - |
| 1777436268 | 28.89° C | 49% | 1008.1 hPa | - | - | - | - |
| 1777435068 | 28.89° C | 49% | 1008.4 hPa | - | - | - | - |
| 1777433867 | 29.44° C | 47% | 1008.6 hPa | - | - | - | - |
| 1777432666 | 30° C | 51% | 1008.7 hPa | - | - | - | - |
| 1777431467 | 30° C | 46% | 1008.8 hPa | - | - | - | - |
| 1777430266 | 30° C | 46% | 1009 hPa | - | - | - | - |
| 1777427867 | 29.44° C | 47% | 1009.3 hPa | - | - | - | - |
| 1777425467 | 27.22° C | 58% | 1009.5 hPa | - | - | - | - |
| 1777423067 | 26.67° C | 38% | 1009.4 hPa | - | - | - | - |
| 1777417070 | 27.22° C | 38% | 1009.6 hPa | - | - | - | - |
| 1777409868 | 27.78° C | 47% | 1008.8 hPa | - | - | - | - |
| 1777407468 | 27.22° C | 45% | 1008.3 hPa | - | - | - | - |
* Rain since midnight (hover to see other rain measurements)
** Current wind speed in m/s (hover to see current wind gust speed)